This is the latest recevied weather packets stored in our database for station/object SR8WXL-13. If no packets are shown the sender has not sent any weather packets the latest 10 day(s).
| Time | Temp. | Humidity | Pressure | Rain* | Wind** | Luminosity | Snow |
|---|---|---|---|---|---|---|---|
| 1787843120 | 22.78° C | 52% | 1035.8 hPa | 0 mm | - | - | - |
| 1787842302 | 22.78° C | 49% | 1035.7 hPa | 0 mm | - | - | - |
| 1787841441 | 22.78° C | 51% | 1035.7 hPa | 0 mm | - | - | - |
| 1787840672 | 22.78° C | 50% | 1035.9 hPa | 0 mm | - | - | - |
| 1787839863 | 22.78° C | 49% | 1035.9 hPa | 0 mm | - | - | - |
| 1787839006 | 22.78° C | 48% | 1035.9 hPa | 0 mm | - | - | - |
| 1787838250 | 22.78° C | 50% | 1035.7 hPa | 0 mm | - | - | - |
| 1787837451 | 22.78° C | 49% | 1035.9 hPa | 0 mm | - | - | - |
| 1787836589 | 22.78° C | 50% | 1035.8 hPa | 0 mm | - | - | - |
| 1787835709 | 22.78° C | 51% | 1035.7 hPa | 0 mm | - | - | - |
| 1787834824 | 22.78° C | 54% | 1036 hPa | 0 mm | - | - | - |
| 1787833954 | 22.78° C | 52% | 1035.8 hPa | 0 mm | - | - | - |
| 1787833156 | 22.78° C | 53% | 1036 hPa | 0 mm | - | - | - |
| 1787832274 | 22.22° C | 56% | 1035.9 hPa | 0 mm | - | - | - |
| 1787831424 | 22.22° C | 57% | 1036.3 hPa | 0 mm | - | - | - |
| 1787830524 | 22.22° C | 58% | 1036.1 hPa | 0 mm | - | - | - |
| 1787829675 | 22.22° C | 58% | 1036.1 hPa | 0 mm | - | - | - |
| 1787828784 | 22.22° C | 60% | 1036.2 hPa | 0 mm | - | - | - |
| 1787827987 | 22.22° C | 61% | 1036.3 hPa | 0 mm | - | - | - |
| 1787827242 | 21.11° C | 63% | 1035.9 hPa | 0 mm | - | - | - |
| 1787826484 | 21.11° C | 62% | 1036.2 hPa | 0 mm | - | - | - |
| 1787825630 | 21.11° C | 65% | 1036.2 hPa | 0 mm | - | - | - |
| 1787824764 | 21.11° C | 62% | 1036.2 hPa | 0 mm | - | - | - |
| 1787824005 | 21.11° C | 63% | 1036.3 hPa | 0 mm | - | - | - |
| 1787823125 | 20° C | 67% | 1036.3 hPa | 0 mm | - | - | - |
* Rain latest hour (hover to see other rain measurements)
** Current wind speed in m/s (hover to see current wind gust speed)